• Em Portugal
  • Lista de países
  • Para 7 dias
  • Temperatura da água
  • Mapas de satélite
  • Mapa do tempo
  • Widgets de tempo
  • user-avatar
    Iniciar Sessão

    Previsão horária em Taungdżi

    Hoje, 22 Setembro, Sábado

    Tempo Temperatura Precipitação Vento Pressão Humidade
    00:00 +17°C° 0 mm 0 m/s 650 mmHg 94%
    01:00 +19°C° 0 mm 1 m/s 650 mmHg 94%
    02:00 +19°C° 0 mm 1 m/s 650 mmHg 95%
    03:00 +19°C° 0 mm 1 m/s 650 mmHg 95%
    04:00 +19°C° 0 mm 1 m/s 650 mmHg 95%
    05:00 +19°C° 0 mm 1 m/s 650 mmHg 95%
    06:00 +20°C° 0 mm 1 m/s 651 mmHg 93%
    07:00 +22°C° 0.2 mm 1 m/s 651 mmHg 85%
    08:00 +24°C° 0.2 mm 1 m/s 652 mmHg 77%
    09:00 +27°C° 0.2 mm 1 m/s 653 mmHg 69%
    10:00 +28°C° 0.7 mm 1 m/s 652 mmHg 67%
    11:00 +29°C° 0.7 mm 1 m/s 652 mmHg 64%
    12:00 +28°C° 0 mm 1 m/s 652 mmHg 63%
    13:00 +28°C° 1.3 mm 1 m/s 652 mmHg 64%
    14:00 +28°C° 1.3 mm 1 m/s 651 mmHg 65%
    15:00 +28°C° 1.3 mm 1 m/s 651 mmHg 66%
    16:00 +24°C° 0.9 mm 0 m/s 650 mmHg 72%
    17:00 +22°C° 0.9 mm 0 m/s 650 mmHg 78%
    18:00 +20°C° 0.9 mm 0 m/s 649 mmHg 84%
    19:00 +20°C° 0.3 mm 0 m/s 649 mmHg 85%
    20:00 +19°C° 0.3 mm 0 m/s 650 mmHg 87%
    21:00 +19°C° 0.3 mm 0 m/s 650 mmHg 88%
    22:00 +18°C° 0.1 mm 0 m/s 650 mmHg 88%
    23:00 +18°C° 0.1 mm 0 m/s 650 mmHg 89%

    Amanhã, 23 Setembro, Domingo

    Tempo Temperatura Precipitação Vento Pressão Humidade
    00:00 +18°C° 0.1 mm 0 m/s 650 mmHg 89%
    01:00 +18°C° 0.3 mm 0 m/s 650 mmHg 89%
    02:00 +18°C° 0.3 mm 0 m/s 649 mmHg 90%
    03:00 +17°C° 0.3 mm 0 m/s 649 mmHg 90%
    04:00 +18°C° 0.3 mm 0 m/s 649 mmHg 89%
    05:00 +18°C° 0.3 mm 0 m/s 650 mmHg 89%
    06:00 +18°C° 0.3 mm 0 m/s 650 mmHg 89%
    07:00 +20°C° 0.7 mm 0 m/s 651 mmHg 83%
    08:00 +22°C° 0.7 mm 0 m/s 652 mmHg 78%
    09:00 +24°C° 0.7 mm 0 m/s 653 mmHg 72%
    10:00 +25°C° 1.1 mm 0 m/s 652 mmHg 69%
    11:00 +28°C° 1.1 mm 1 m/s 652 mmHg 65%
    12:00 +29°C° 1.1 mm 1 m/s 652 mmHg 62%
    13:00 +28°C° 1.1 mm 1 m/s 651 mmHg 63%
    14:00 +28°C° 1.1 mm 1 m/s 650 mmHg 65%
    15:00 +28°C° 1.1 mm 1 m/s 650 mmHg 67%
    16:00 +26°C° 0.9 mm 1 m/s 649 mmHg 73%
    17:00 +22°C° 0.9 mm 0 m/s 649 mmHg 79%
    18:00 +20°C° 0.9 mm 0 m/s 648 mmHg 85%
    19:00 +20°C° 0.3 mm 0 m/s 649 mmHg 86%
    20:00 +19°C° 0.3 mm 0 m/s 649 mmHg 87%
    21:00 +19°C° 0.3 mm 0 m/s 650 mmHg 89%
    22:00 +21°C° 0 mm 1 m/s 650 mmHg 89%
    23:00 +20°C° 0 mm 1 m/s 649 mmHg 90%

    Depois de amanhã, 24 Setembro, Segunda-feira

    Tempo Temperatura Precipitação Vento Pressão Humidade
    00:00 +20°C° 0 mm 1 m/s 649 mmHg 90%
    01:00 +18°C° 0 mm 0 m/s 649 mmHg 91%
    02:00 +18°C° 0 mm 0 m/s 649 mmHg 91%
    03:00 +17°C° 0 mm 0 m/s 648 mmHg 92%
    04:00 +18°C° 0.2 mm 0 m/s 648 mmHg 92%
    05:00 +18°C° 0.2 mm 0 m/s 649 mmHg 92%
    06:00 +18°C° 0.2 mm 0 m/s 649 mmHg 92%
    07:00 +22°C° 0.4 mm 1 m/s 650 mmHg 85%
    08:00 +24°C° 0.4 mm 1 m/s 651 mmHg 78%
    09:00 +26°C° 0.4 mm 1 m/s 652 mmHg 72%
    10:00 +27°C° 0.6 mm 1 m/s 652 mmHg 69%
    11:00 +27°C° 0.6 mm 1 m/s 651 mmHg 67%
    12:00 +28°C° 0.6 mm 1 m/s 651 mmHg 64%
    13:00 +27°C° 1 mm 1 m/s 650 mmHg 67%
    14:00 +27°C° 1 mm 1 m/s 649 mmHg 70%
    15:00 +26°C° 1 mm 1 m/s 648 mmHg 72%
    16:00 +25°C° 0.2 mm 1 m/s 648 mmHg 78%
    17:00 +23°C° 0.2 mm 1 m/s 648 mmHg 83%
    18:00 +20°C° 0.2 mm 0 m/s 648 mmHg 88%
    19:00 +21°C° 0.3 mm 1 m/s 648 mmHg 90%
    20:00 +21°C° 0.3 mm 1 m/s 648 mmHg 92%
    21:00 +21°C° 0.3 mm 1 m/s 649 mmHg 94%
    22:00 +20°C° 0 mm 1 m/s 649 mmHg 95%
    23:00 +20°C° 0 mm 1 m/s 648 mmHg 96%

    25 Setembro, Terça-feira

    Tempo Temperatura Precipitação Vento Pressão Humidade
    00:00 +20°C° 0 mm 1 m/s 648 mmHg 96%
    01:00 +20°C° 0 mm 1 m/s 648 mmHg 97%
    02:00 +19°C° 0 mm 1 m/s 647 mmHg 97%
    03:00 +19°C° 0 mm 1 m/s 647 mmHg 98%
    04:00 +19°C° 0 mm 1 m/s 647 mmHg 97%
    05:00 +19°C° 0 mm 1 m/s 648 mmHg 97%
    06:00 +19°C° 0 mm 1 m/s 648 mmHg 96%
    07:00 +22°C° 0 mm 1 m/s 649 mmHg 88%
    08:00 +24°C° 0 mm 1 m/s 650 mmHg 79%
    09:00 +26°C° 0 mm 1 m/s 651 mmHg 71%
    10:00 +27°C° 0.1 mm 1 m/s 651 mmHg 68%
    11:00 +28°C° 0.1 mm 1 m/s 650 mmHg 64%
    12:00 +28°C° 0.1 mm 1 m/s 650 mmHg 61%
    13:00 +28°C° 0.3 mm 2 m/s 649 mmHg 63%
    14:00 +28°C° 0.3 mm 2 m/s 648 mmHg 66%
    15:00 +27°C° 0.3 mm 2 m/s 647 mmHg 68%
    16:00 +25°C° 0.5 mm 1 m/s 647 mmHg 76%
    17:00 +24°C° 0.5 mm 1 m/s 647 mmHg 84%
    18:00 +22°C° 0.5 mm 1 m/s 646 mmHg 91%
    19:00 +22°C° 0.4 mm 1 m/s 647 mmHg 93%
    20:00 +21°C° 0.4 mm 1 m/s 647 mmHg 94%
    21:00 +19°C° 0.4 mm 0 m/s 648 mmHg 95%
    22:00 +19°C° 0 mm 0 m/s 648 mmHg 96%
    23:00 +20°C° 0 mm 1 m/s 647 mmHg 96%

    26 Setembro, Quarta-feira

    Tempo Temperatura Precipitação Vento Pressão Humidade
    00:00 +20°C° 0 mm 1 m/s 647 mmHg 97%
    01:00 +20°C° 0 mm 1 m/s 647 mmHg 97%
    02:00 +18°C° 0 mm 0 m/s 646 mmHg 97%
    03:00 +17°C° 0 mm 0 m/s 646 mmHg 98%
    04:00 +18°C° 0 mm 0 m/s 647 mmHg 97%
    05:00 +18°C° 0 mm 0 m/s 647 mmHg 97%
    06:00 +18°C° 0 mm 0 m/s 647 mmHg 96%
    07:00 +20°C° 0.1 mm 0 m/s 648 mmHg 88%
    08:00 +24°C° 0.1 mm 1 m/s 649 mmHg 80%
    09:00 +26°C° 0.1 mm 1 m/s 650 mmHg 72%
    10:00 +27°C° 0.7 mm 1 m/s 650 mmHg 69%
    11:00 +28°C° 0.7 mm 1 m/s 650 mmHg 66%
    12:00 +28°C° 0.7 mm 1 m/s 649 mmHg 64%
    13:00 +28°C° 1 mm 1 m/s 648 mmHg 67%
    14:00 +27°C° 1 mm 1 m/s 648 mmHg 69%
    15:00 +27°C° 1 mm 1 m/s 647 mmHg 72%
    16:00 +25°C° 0.5 mm 1 m/s 647 mmHg 78%
    17:00 +24°C° 0.5 mm 1 m/s 647 mmHg 84%
    18:00 +20°C° 0.5 mm 0 m/s 647 mmHg 90%
    19:00 +20°C° 0.6 mm 0 m/s 647 mmHg 91%
    20:00 +20°C° 0.6 mm 0 m/s 648 mmHg 92%
    21:00 +19°C° 0.6 mm 0 m/s 648 mmHg 93%
    22:00 +19°C° 0.6 mm 0 m/s 648 mmHg 94%
    23:00 +19°C° 0.6 mm 0 m/s 648 mmHg 95%

    27 Setembro, Quinta-feira

    Tempo Temperatura Precipitação Vento Pressão Humidade
    00:00 +19°C° 0.6 mm 0 m/s 648 mmHg 96%
    01:00 +19°C° 0.1 mm 0 m/s 647 mmHg 96%
    02:00 +19°C° 0.1 mm 0 m/s 647 mmHg 96%
    03:00 +18°C° 0.1 mm 0 m/s 647 mmHg 97%
    04:00 +19°C° 0.3 mm 0 m/s 648 mmHg 96%
    05:00 +19°C° 0.3 mm 0 m/s 648 mmHg 96%
    06:00 +19°C° 0.3 mm 0 m/s 648 mmHg 96%
    07:00 +21°C° 0.4 mm 0 m/s 649 mmHg 89%
    08:00 +23°C° 0.4 mm 0 m/s 650 mmHg 82%
    09:00 +25°C° 0.4 mm 0 m/s 651 mmHg 74%
    10:00 +27°C° 1.1 mm 1 m/s 650 mmHg 72%
    11:00 +28°C° 1.1 mm 1 m/s 650 mmHg 69%
    12:00 +29°C° 1.1 mm 1 m/s 649 mmHg 67%
    13:00 +28°C° 1.2 mm 1 m/s 649 mmHg 70%
    14:00 +27°C° 1.2 mm 1 m/s 648 mmHg 74%
    15:00 +26°C° 1.2 mm 1 m/s 647 mmHg 78%
    16:00 +25°C° 0.7 mm 1 m/s 647 mmHg 82%
    17:00 +24°C° 0.7 mm 1 m/s 647 mmHg 87%
    18:00 +20°C° 0.7 mm 0 m/s 647 mmHg 92%
    19:00 +20°C° 0.7 mm 0 m/s 648 mmHg 93%
    20:00 +20°C° 0.7 mm 0 m/s 648 mmHg 93%
    21:00 +20°C° 0.7 mm 0 m/s 648 mmHg 94%
    22:00 +19°C° 0.2 mm 0 m/s 648 mmHg 94%
    23:00 +19°C° 0.2 mm 0 m/s 648 mmHg 94%
    Mostrar mais